الصفحة الرئيسية
METAR-TAF:

METAR-TAF

مطار :

بلودير سيتي, نيفادا, الولايات المتحدة

دائرة عرض: 35-56-50N, خط طول: 114-51-37W, ارتفاع: 671 متر

مراقبة الطقس الحالي

تاريخ ووقت الإصدار 7 دقيقة قبل الساعة 02:35UTC
ريح 8 عقدة من الشمال
درجة الحرارة 11°درجة مئوية
الرطوبة 66%
ضغط 1023 hPa
الرؤية: 16.1 كم
سماء صافية

METAR: KBVU 230235Z AUTO 01008KT 10SM CLR 11/05 A3020 RMK AO2

زمن: 18:42 (02:42 UTC)


TAF: مفقودة

أرصاد الطقس والتوقعات من أكثر من 4000 مطار (تقارير الطقس للمطار METAR والتنبؤ بالطقس بالمطارTAF).

المحطات المتاحة هي النقط الصفراء والحمراء على الخريطة.

حرك المؤشر فوق النقطة لمعرفة اسم المحطة.

ثم انقر لمعرفة أرصاد وتوقعات الطقس.

لتغيير الخارطة: اضغط على الأزرار الخضراء مع رمز الصليب الأسود للتكبير. على الزر الأخضر مع شرطة للتصغير، أو على الأسهم الخضراء للخرائط المجاورة.


METAR-TAF: